Weather History for KCMA - May, 2012

Change the Weather History Date:

Wednesday, May 9, 2012

  Actual Average Record
Temperature  
Mean Temperature 63 °F 61 °F  
Max Temperature 74 °F 71 °F 84 °F (1978)
Min Temperature 51 °F 50 °F 40 °F (1964)
Degree Days  
Heating Degree Days 2 5  
Month to date heating degree days 42 46  
Since 1 July heating degree days 1614 1866  
Cooling Degree Days 0 0  
Month to date cooling degree days 0 0  
Year to date cooling degree days 15 20  
Growing Degree Days 12 (Base 50)    
Moisture  
Dew Point 53 °F    
Average Humidity 71    
Maximum Humidity 93    
Minimum Humidity 49    
Precipitation  
Precipitation 0.00 in 0.01 in 0.39 in (1977)
Month to date precipitation 0.01 0.17  
Year to date precipitation 5.68 10.79  
Since 1 July precipitation 8.71  
Sea Level Pressure  
Sea Level Pressure 29.89 in    
Wind  
Wind Speed 4 mph (WSW)    
Max Wind Speed 12 mph    
Max Gust Speed 16 mph    
Visibility 8 miles    
Events      
T = Trace of Precipitation, MM = Missing Value Source: NWS Daily Summary

Daily Weather History Graph

Daily Weather History Graph

Search for Another Location

Airport or City:

Trip Planner

Search our weather history database for the weather conditions in past years. The results will help you decide how hot, cold, wet, or windy it might be!

Date:

Astronomy

May. 09, 2012 Rise Set
Actual Time 5:58 AM PDT 7:47 PM PDT
Civil Twilight 5:31 AM PDT 8:14 PM PDT
Nautical Twilight 4:58 AM PDT 8:47 PM PDT
Astronomical Twilight 4:23 AM PDT 9:22 PM PDT
Moon 11:49 PM PDT (5/9) 9:22 AM PDT (5/9)
Length of Visible Light 14h 43m
Length of Day
13h 48m
Waning Gibbous, 82% of the Moon is Illuminated
May 9
Waning Gibbous
May 12
Last Quarter
May 20
New
May 28
First Quarter
Jun 4
Full

Hourly Weather History & Observations

Time (PDT) Temp. Dew Point Humidity Pressure Visibility Wind Dir Wind Speed Gust Speed Precip Events Conditions
12:55 AM 55.0 °F 52.0 °F 89% 29.91 in 6.0 mi Calm Calm - N/A   Clear
1:14 AM 55.4 °F 53.6 °F 94% 29.88 in 5.0 mi Calm Calm - N/A   Partly Cloudy
1:55 AM 55.9 °F 53.1 °F 90% 29.89 in 7.0 mi NE 3.5 mph - N/A   Clear
2:55 AM 54.0 °F 51.1 °F 90% 29.89 in 7.0 mi NE 3.5 mph - N/A   Clear
3:55 AM 54.0 °F 51.1 °F 90% 29.89 in 7.0 mi ENE 3.5 mph - N/A   Clear
5:55 AM 52.0 °F 48.9 °F 89% 29.90 in 6.0 mi Calm Calm - N/A   Clear
6:55 AM 54.0 °F 51.1 °F 90% 29.91 in 6.0 mi Calm Calm - N/A   Clear
7:55 AM 59.0 °F 52.0 °F 78% 29.92 in 8.0 mi Calm Calm - N/A   Clear
8:55 AM 63.0 °F 54.0 °F 72% 29.92 in 7.0 mi Calm Calm - N/A   Clear
9:55 AM 69.1 °F 55.0 °F 61% 29.91 in 9.0 mi Calm Calm - N/A   Clear
10:55 AM 73.0 °F 55.9 °F 55% 29.91 in 10.0 mi SSW 8.1 mph - N/A   Clear
11:55 AM 72.0 °F 54.0 °F 53% 29.91 in 10.0 mi SW 6.9 mph - N/A   Clear
12:55 PM 73.9 °F 54.0 °F 50% 29.90 in 10.0 mi Variable 6.9 mph - N/A   Clear
1:55 PM 73.0 °F 54.0 °F 51% 29.89 in 10.0 mi SW 9.2 mph - N/A   Clear
2:55 PM 71.1 °F 54.0 °F 55% 29.88 in 10.0 mi SW 10.4 mph - N/A   Clear
3:55 PM 71.1 °F 55.0 °F 57% 29.86 in 10.0 mi SW 8.1 mph - N/A   Clear
4:55 PM 68.0 °F 54.0 °F 61% 29.85 in 8.0 mi WSW 6.9 mph - N/A   Clear
5:55 PM 64.9 °F 54.0 °F 68% 29.85 in 8.0 mi West 6.9 mph - N/A   Clear
6:55 PM 63.0 °F 54.0 °F 72% 29.85 in 7.0 mi SW 5.8 mph - N/A   Clear
7:55 PM 60.1 °F 53.1 °F 78% 29.85 in 7.0 mi WSW 5.8 mph - N/A   Clear
8:55 PM 57.9 °F 53.1 °F 84% 29.86 in 7.0 mi West 3.5 mph - N/A   Clear
9:55 PM 57.9 °F 54.0 °F 87% 29.87 in 7.0 mi WNW 3.5 mph - N/A   Clear
10:55 PM 57.9 °F 53.1 °F 84% 29.87 in 7.0 mi Calm Calm - N/A   Clear
11:55 PM 55.9 °F 52.0 °F 87% 29.88 in 7.0 mi Calm Calm - N/A   Clear